Regional Weather Roundup
Issued by NWS

Home | Current Version | Previous Version | Text Only | Print | Product List | Glossary Off
Versions: 1 2 3 4 5 6 7 8 9 10 11 12 13 14 15 16 17 18 19 20 21 22 23 24 25 26 27 28 29 30 31 32 33 34 35 36 37 38 39 40 41 42 43 44 45 46 47 48 49 50

134
ASUS45 KBOU 221907
RWRCO

WEATHER ROUNDUP FOR COLORADO
NATIONAL WEATHER SERVICE DENVER/BOULDER CO
1200 PM MST WED FEB 22 2017

NOTE: "FAIR" INDICATES FEW OR NO CLOUDS BELOW 12000 FEET WITH NO
SIGNIFICANT WEATHER AND/OR OBSTRUCTIONS TO VISIBILITY.

COZ001>005-013-030-031-222000-
...NORTHWEST COLORADO...

CITY           SKY/WX    TMP DP  RH WIND       PRES   REMARKS
CRAIG          CLOUDY    36  28  73 NE5       29.92F
HAYDEN         CLOUDY    34  25  69 NW12      29.92F WCI  25
MEEKER         CLOUDY    46  31  55 W8G17     29.87F
MOUNT WERNER   NOT AVBL
STEAMBOAT SPGS CLOUDY    35  27  74 SE5       29.91F WCI  31
WALDEN         NOT AVBL
$$

COZ006>008-011-222000-
...WEST CENTRAL VALLEYS...

CITY           SKY/WX    TMP DP  RH WIND       PRES   REMARKS
GRAND JUNCTION FAIR      56  31  38 VRB7      29.87F
MONTROSE       FAIR      54  25  32 SW9G22    29.92F
EAGLE          MOSUNNY   52  21  30 W17G23    29.89F
RIFLE          FAIR      58  25  28 SW15G26   29.85F
DELTA          PTSUNNY   60  26  26 SW16G30   29.89F
NUCLA          FAIR      57  28  33 SW18G31   29.96F
$$

COZ017>023-064>068-222000-
...SOUTHWEST COLORADO...

CITY           SKY/WX    TMP DP  RH WIND       PRES   REMARKS
DURANGO        FAIR      50  35  56 SW8       30.04F
CORTEZ         FAIR      57  31  37 SW17G28   29.99F
PAGOSA SPRINGS FAIR      45  33  63 S7        30.08F
TELLURIDE      FAIR      45   6  20 SW15G28   30.02F
WOLF CREEK PAS CLOUDY    23  23 100 SW17G31   30.15F WCI   9
$$

COZ009-010-012-014-032>034-037-058>063-222000-
...CENTRAL COLORADO...

CITY           SKY/WX    TMP DP  RH WIND       PRES   REMARKS
ASPEN          PTSUNNY   46  18  32 VRB7G24   29.90F
BUENA VISTA    FAIR      50  10  19 SW16G31   29.93F
COPPER MTN     NOT AVBL
BERTHOUD PASS  FAIR      25  14  63 W33G45    29.96S WCI   7
COTTONWOOD PAS FAIR      43   7  22 S9G32     29.97F
GUNNISON       FAIR      40  22  48 S5        29.97F
KREMMLING      CLOUDY    52  23  32 W10G18    29.88F
LEADVILLE      FAIR      36  12  37 S20G26    29.94F
MONARCH PASS   FAIR      27  16  63 W31G38    30.14F WCI  10
SALIDA         FAIR      55  13  19 W14G20    30.00F
SUNLIGHT       NOT AVBL
WILKERSON PASS FAIR      36  12  38 SW13G26   30.02F
$$

COZ069>075-222000-
...SAN LUIS VALLEY/SANGRE DE CRISTO MOUNTAINS...

CITY           SKY/WX    TMP DP  RH WIND       PRES   REMARKS
ALAMOSA        FAIR      51  23  33 SW23G35   30.01S
LA VETA PASS   PTSUNNY   34  23  64 NE22G33   30.08F WCI  22
SAGUACHE       FAIR      54  14  20 W21G30    29.95F
$$

COZ035-036-038>040-222000-
...NORTHERN COLORADO FRONT RANGE...

CITY           SKY/WX    TMP DP  RH WIND       PRES   REMARKS
DENVER INTL AP FAIR      53  23  31 E20       29.84F
DMNS CITY PARK   N/A     53  22  29 E14G24    29.82F
AURORA         MOSUNNY   53  23  31 E17       29.83F
FRONT RANGE AP MOSUNNY   54  25  32 E14G25    29.86F
ERIE MUNI ARPT FAIR      55  22  28 E9        29.84F
BOULDER MUN AP FAIR      52  23  32 E3        29.83F
CENTENNIAL     FAIR      56  22  26 NE12      29.82F
BROOMFIELD     MOSUNNY   54  25  32 E8        29.84F
FORT COLLINS   FAIR      56  25  30 SW8       29.83F
LONGMONT       FAIR      57  25  29 SE9       29.85F
$$

COZ041-046-047-076>085-087-088-222000-
...PIKES PEAK/PALMER DIVIDE AND SOUTHERN FOOTHILLS...

CITY           SKY/WX    TMP DP  RH WIND       PRES   REMARKS
COLO. SPRINGS  FAIR      63   8  11 SW15G24   29.85F
A. F. ACADEMY  FAIR      60   9  13 SW23G30   29.82F
SCHRIEVER AFB  FAIR      62   9  12 SW23G37   29.85F
ELLICOTT       FAIR     N/A N/A N/A W17G31    29.85F
FALCON         FAIR      60   6  11 W17G29    29.87F
FORT CARSON    FAIR      63   9  12 SW28G35   29.81F
LIMON          FAIR      56  22  26 MISG      29.85F
MONUMENT HILL  FAIR      55   9  15 W32G39    29.87F
TRINIDAD       FAIR      68  14  12 W38G51    29.85F
$$

COZ042>045-048>051-090-091-222000-
...NORTHEAST COLORADO...

CITY           SKY/WX    TMP DP  RH WIND       PRES   REMARKS
GREELEY ARPT   FAIR      55  24  30 N6        29.84F
AKRON          FAIR      57  18  21 NW12G23   29.84F
BURLINGTON     FAIR      62  23  22 N13G18    29.86F
WRAY           NOT AVBL
STERLING       FAIR      59  21  23 NW13G22   29.82F
HOLYOKE        FAIR      64  18  16 NW9G20    29.82F
FORT MORGAN    FAIR      58  18  21 NW7G18    29.85F
$$

COZ086-089-092>099-222000-
...SOUTHEAST COLORADO...

CITY           SKY/WX    TMP DP  RH WIND       PRES   REMARKS
PUEBLO         FAIR      70  14  11 W25G31    29.81F
LA JUNTA       FAIR      69  25  19 E13       29.82F
LAMAR          FAIR      66  26  22 E9        29.81F
SPRINGFIELD      N/A     74  17  11 NW12G21   29.83F
$$




USA.gov is the U.S. government's official web portal to all federal, state and local government web resources and services.